This demonstration page uses our WeatherBlox Daily Observations layout. Learn more.

Left ArrowRight Arrow

31.31129, -92.44514

Hourly Observations for September 29, 2022

Temp ( °F °C ) Dew Point ( °F °C ) Humidity (%) Winds ( mph kmh ) Pressure ( in mb ) Visibility ( mi km ) Precip ( " mm )
12:53 am 00:53 Clear 66 18.9 47 8.3 50 50 NE 7 11 30.22 1023 10 16 0.00 0.00
1:53 am 01:53 Clear 64 17.8 45 7.2 50 50 NE 8 13 30.22 1023 10 16 0.00 0.00
2:53 am 02:53 Clear 62 16.7 44 6.7 52 52 NNE 7 11 30.22 1023 10 16 0.00 0.00
3:53 am 03:53 Clear 60 15.6 42 5.6 51 51 NNE 8 13 30.22 1023 10 16 0.00 0.00
4:53 am 04:53 Clear 58 14.4 41 5 53 53 NNE 7 11 30.22 1023 10 16 0.00 0.00
5:53 am 05:53 Clear 57 13.9 41 5 55 55 NNE 6 9 30.22 1023 10 16 0.00 0.00
6:53 am 06:53 Clear 56 13.3 41 5 57 57 NE 7 11 30.23 1024 10 16 0.00 0.00
7:53 am 07:53 Sunny 58 14.4 41 5 53 53 NE 7 11 30.25 1024 10 16 0.00 0.00
8:53 am 08:53 Sunny 62 16.7 42 5.6 48 48 NE 9 15 30.25 1024 10 16 0.00 0.00
9:53 am 09:53 Sunny 66 18.9 42 5.6 42 42 NNE 10 17 30.25 1025 10 16 0.00 0.00
10:53 am 10:53 Sunny 69 20.6 42 5.6 37 37 NE 9 15 30.24 1024 10 16 0.00 0.00
11:53 am 11:53 Sunny 72 22.2 42 5.6 34 34 NNE 12 19 30.22 1023 10 16 0.00 0.00
12:53 pm 12:53 Sunny 74 23.3 43 6.1 33 33 NNE 12 19 30.19 1022 10 16 0.00 0.00
1:53 pm 13:53 Sunny 75 23.9 42 5.6 31 31 NNE 13 20 30.15 1021 10 16 0.00 0.00
2:53 pm 14:53 Sunny 76 24.4 43 6.1 31 31 NNE 10 17 30.12 1020 10 16 0.00 0.00
3:53 pm 15:53 Sunny 76 24.4 43 6.1 31 31 N 14 22 30.10 1019 10 16 0.00 0.00
4:53 pm 16:53 Sunny 76 24.4 43 6.1 31 31 NNE 12 19 30.09 1019 10 16 0.00 0.00
5:53 pm 17:53 Sunny 73 22.8 43 6.1 34 34 NNE 12 19 30.08 1019 10 16 0.00 0.00
6:53 pm 18:53 Sunny 70 21.1 44 6.7 39 39 VRB 6 9 30.08 1019 10 16 0.00 0.00
7:53 pm 19:53 Clear 64 17.8 45 7.2 50 50 NNW 3 6 30.08 1019 10 16 0.00 0.00
8:53 pm 20:53 Clear 61 16.1 47 8.3 60 60 N 5 7 30.09 1019 10 16 0.00 0.00
9:53 pm 21:53 Clear 59 15 47 8.3 64 64 N 3 6 30.10 1019 10 16 0.00 0.00
10:53 pm 22:53 Clear 54 12.2 48 8.9 80 80 Calm 30.10 1019 10 16 0.00 0.00
11:53 pm 23:53 Clear 52 11.1 42 5.6 69 69 WNW 3 6 30.09 1019 10 16 0.00 0.00

Powered by AerisWeather